Weather in Krasnoye

Russia / Oryol Oblast     52°49′47″N   36°44′26″E
temp.,
°C
wind,
m/s
gust,
m/s
humid.,
%
clouds,
%
prec.,
mm/h
press.,
hPa
HPBL,
m
18 april, sun
sun1800:00+5n1190100 0.0 101812
03:00+4sse119099 0.0 101819
06:00+3ne349497 0.1 101894
09:00+6ene4486100 0.4 1018649
12:00+7ne228199 0.5 1019623
15:00+10ene236496 0.6 1018959
18:00+10ene2364100 0.1 1017451
21:00+7nne2382100 1.0 101853
19 april, mon
mon1900:00+6ene238455 0.5 101855
03:00+5ne3486100 0.6 101865
06:00+4ene379499 0.3 1018196
09:00+7ne468799 1.8 1018348
12:00+10e456896 0.5 10181103
15:00+9ne778193 1.7 1018653
18:00+7ne698897 0.3 1018624
21:00+5ne699290 0.3 1019491
20 april, tue
tue2000:00+5ne5993100 0.0 1018413
03:00+6ene5994100 0.0 1017486
06:00+5ene5993100 0.0 1016452
09:00+6ene61092100 0.3 1015560
12:00+9ene6985100 0.3 1013962
15:00+9ene81183100 0.6 1011935
18:00+6ene91492100 1.9 1007847
21:00+3ne81697100 11.9 1003730
21 april, wed
wed2100:00+6e31099100 8.9 996471
03:00+3wsw5898100 9.6 997258
06:00+2wsw61197100 1.0 1000428
09:00+2w71294100 1.1 1004702
12:00+4wsw71285100 0.0 1007975
15:00+6wsw61181100 0.1 10101244
18:00+7sw6107690 0.1 1012855
21:00+5sw41082100 0.2 1015346
22 april, thu
thu2200:00+4ssw49875 0.0 1016196
03:00+3ssw410885 0.0 1017199
06:00+3ssw49905 0.0 1018186
09:00+7ssw51075100 0.0 1019468
12:00+11ssw686516 0.0 10191002
15:00+10ssw687538 0.5 1019864
18:00+11s487465 0.3 1018746
21:00+9sse4108898 1.6 1018268